#Datum;Uhrzeit;WR;Pac;DaySum;Status;WR;Pac;DaySum;Status;Pdc1;Udc;Temp;WR;Pac;DaySum;Status;Pdc1;Udc;Temp;WR;Pac;DaySum;Status;Pdc1;Udc;Temp;WR;Pac;DaySum;Status;Pdc1;Pdc2;Udc1;Udc2;Temp;WR;Pac;DaySum;Status;Pdc1;Pdc2;Udc1;Udc2;Temp;WR;Pac;DaySum;Status;Pdc1;Udc;Temp;WR;Pac;DaySum;Status;Pdc1;Udc;Temp;WR;Pac;DaySum;Status;Pdc1;Udc;Temp
20.01.21;23:55:00;1;739;15820;0;2;0;1911;0;0;0;0;3;0;3674;0;0;0;0;4;0;0;0;0;0;0;5;0;0;0;0;0;0;0;0;6;0;262;0;0;0;0;0;0;7;0;9373;0;0;0;0;8;0;9888;0;0;0;0;9;0;4450;0;0;0;0
20.01.21;23:50:00;1;334;15761;0;2;0;1911;0;0;0;0;3;0;3674;0;0;0;0;4;0;0;0;0;0;0;5;0;0;0;0;0;0;0;0;6;0;262;0;0;0;0;0;0;7;0;9373;0;0;0;0;8;0;9888;0;0;0;0;9;0;4450;0;0;0;0
20.01.21;23:45:00;1;307;15733;0;2;0;1911;0;0;0;0;3;0;3674;0;0;0;0;4;0;0;0;0;0;0;5;0;0;0;0;0;0;0;0;6;0;262;0;0;0;0;0;0;7;0;9373;0;0;0;0;8;0;9888;0;0;0;0;9;0;4450;0;0;0;0
20.01.21;23:40:00;1;2634;15707;0;2;0;1911;0;0;0;0;3;0;3674;0;0;0;0;4;0;0;0;0;0;0;5;0;0;0;0;0;0;0;0;6;0;262;0;0;0;0;0;0;7;0;9373;0;0;0;0;8;0;9888;0;0;0;0;9;0;4450;0;0;0;0
20.01.21;23:35:00;1;753;15480;0;2;0;1911;0;0;0;0;3;0;3674;0;0;0;0;4;0;0;0;0;0;0;5;0;0;0;0;0;0;0;0;6;0;262;0;0;0;0;0;0;7;0;9373;0;0;0;0;8;0;9888;0;0;0;0;9;0;4450;0;0;0;0
20.01.21;23:30:00;1;344;15417;0;2;0;1911;0;0;0;0;3;0;3674;0;0;0;0;4;0;0;0;0;0;0;5;0;0;0;0;0;0;0;0;6;0;262;0;0;0;0;0;0;7;0;9373;0;0;0;0;8;0;9888;0;0;0;0;9;0;4450;0;0;0;0
20.01.21;23:25:00;1;360;15389;0;2;0;1911;0;0;0;0;3;0;3674;0;0;0;0;4;0;0;0;0;0;0;5;0;0;0;0;0;0;0;0;6;0;262;0;0;0;0;0;0;7;0;9373;0;0;0;0;8;0;9888;0;0;0;0;9;0;4450;0;0;0;0
20.01.21;23:20:00;1;351;15358;0;2;0;1911;0;0;0;0;3;0;3674;0;0;0;0;4;0;0;0;0;0;0;5;0;0;0;0;0;0;0;0;6;0;262;0;0;0;0;0;0;7;0;9373;0;0;0;0;8;0;9888;0;0;0;0;9;0;4450;0;0;0;0
20.01.21;23:15:00;1;1179;15327;0;2;0;1911;0;0;0;0;3;0;3674;0;0;0;0;4;0;0;0;0;0;0;5;0;0;0;0;0;0;0;0;6;0;262;0;0;0;0;0;0;7;0;9373;0;0;0;0;8;0;9888;0;0;0;0;9;0;4450;0;0;0;0
20.01.21;23:10:00;1;324;15263;0;2;0;1911;0;0;0;0;3;0;3674;0;0;0;0;4;0;0;0;0;0;0;5;0;0;0;0;0;0;0;0;6;0;262;0;0;0;0;0;0;7;0;9373;0;0;0;0;8;0;9888;0;0;0;0;9;0;4450;0;0;0;0
20.01.21;23:05:00;1;342;15236;0;2;0;1911;0;0;0;0;3;0;3674;0;0;0;0;4;0;0;0;0;0;0;5;0;0;0;0;0;0;0;0;6;0;262;0;0;0;0;0;0;7;0;9373;0;0;0;0;8;0;9888;0;0;0;0;9;0;4450;0;0;0;0
20.01.21;23:00:00;1;492;15202;0;2;0;1911;0;0;0;0;3;0;3674;0;0;0;0;4;0;0;0;0;0;0;5;0;0;0;0;0;0;0;0;6;0;262;0;0;0;0;0;0;7;0;9373;0;0;0;0;8;0;9888;0;0;0;0;9;0;4450;0;0;0;0
20.01.21;22:55:00;1;492;15161;0;2;0;1911;0;0;0;0;3;0;3674;0;0;0;0;4;0;0;0;0;0;0;5;0;0;0;0;0;0;0;0;6;0;262;2;0;0;0;0;0;7;0;9373;0;0;0;0;8;0;9888;0;0;0;0;9;0;4450;0;0;0;0
20.01.21;22:50:00;1;494;15082;0;2;0;1911;0;0;0;0;3;0;3674;0;0;0;0;4;0;0;0;0;0;0;5;0;0;0;0;0;0;0;0;6;0;262;2;0;0;0;0;0;7;0;9373;0;0;0;0;8;0;9888;0;0;0;0;9;0;4450;0;0;0;0
20.01.21;22:45:00;1;587;15041;0;2;0;1911;0;0;0;0;3;0;3674;0;0;0;0;4;0;0;0;0;0;0;5;0;0;0;0;0;0;0;0;6;0;262;2;0;0;0;0;0;7;0;9373;0;0;0;0;8;0;9888;0;0;0;0;9;0;4450;0;0;0;0
20.01.21;22:40:00;1;624;14991;0;2;0;1911;0;0;0;0;3;0;3674;0;0;0;0;4;0;0;0;0;0;0;5;0;0;0;0;0;0;0;0;6;0;262;2;0;0;0;0;0;7;0;9373;0;0;0;0;8;0;9888;0;0;0;0;9;0;4450;0;0;0;0
20.01.21;22:35:00;1;634;14940;0;2;0;1911;0;0;0;0;3;0;3674;0;0;0;0;4;0;0;0;0;0;0;5;0;0;0;0;0;0;0;0;6;0;262;2;0;0;0;0;0;7;0;9373;0;0;0;0;8;0;9888;0;0;0;0;9;0;4450;0;0;0;0
20.01.21;22:30:00;1;547;14852;0;2;0;1911;0;0;0;0;3;0;3674;0;0;0;0;4;0;0;0;0;0;0;5;0;0;0;0;0;0;0;0;6;0;262;2;0;0;0;0;0;7;0;9373;0;0;0;0;8;0;9888;0;0;0;0;9;0;4450;0;0;0;0
20.01.21;22:25:00;1;551;14806;0;2;0;1911;0;0;0;0;3;0;3674;0;0;0;0;4;0;0;0;0;0;0;5;0;0;0;0;0;0;0;0;6;0;262;2;0;0;0;0;0;7;0;9373;0;0;0;0;8;0;9888;0;0;0;0;9;0;4450;0;0;0;0
20.01.21;22:20:00;1;542;14757;0;2;0;1911;0;0;0;0;3;0;3674;0;0;0;0;4;0;0;0;0;0;0;5;0;0;0;0;0;0;0;0;6;0;262;2;0;0;0;0;0;7;0;9373;0;0;0;0;8;0;9888;0;0;0;0;9;0;4450;0;0;0;0
20.01.21;22:15:00;1;531;14712;0;2;0;1911;0;0;0;0;3;0;3674;0;0;0;0;4;0;0;0;0;0;0;5;0;0;0;0;0;0;0;0;6;0;262;2;0;0;0;0;0;7;0;9373;0;0;0;0;8;0;9888;0;0;0;0;9;0;4450;0;0;0;0
20.01.21;22:10:00;1;536;14631;0;2;0;1911;0;0;0;0;3;0;3674;0;0;0;0;4;0;0;0;0;0;0;5;0;0;0;0;0;0;0;0;6;0;262;2;0;0;0;0;0;7;0;9373;0;0;0;0;8;0;9888;0;0;0;0;9;0;4450;0;0;0;0
20.01.21;22:05:00;1;523;14586;0;2;0;1911;0;0;0;0;3;0;3674;0;0;0;0;4;0;0;0;0;0;0;5;0;0;0;0;0;0;0;0;6;0;262;2;0;0;0;0;0;7;0;9373;0;0;0;0;8;0;9888;0;0;0;0;9;0;4450;0;0;0;0
20.01.21;22:00:00;1;531;14542;0;2;0;1911;0;0;0;0;3;0;3674;0;0;0;0;4;0;0;0;0;0;0;5;0;0;0;0;0;0;0;0;6;0;262;2;0;0;0;0;0;7;0;9373;0;0;0;0;8;0;9888;0;0;0;0;9;0;4450;0;0;0;0
20.01.21;21:55:00;1;558;14498;0;2;0;1911;0;0;0;0;3;0;3674;0;0;0;0;4;0;0;0;0;0;0;5;0;0;0;0;0;0;0;0;6;0;262;2;0;0;0;0;0;7;0;9373;0;0;0;0;8;0;9888;0;0;0;0;9;0;4450;0;0;0;0
20.01.21;21:50:00;1;577;14413;0;2;0;1911;0;0;0;0;3;0;3674;0;0;0;0;4;0;0;0;0;0;0;5;0;0;0;0;0;0;0;0;6;0;262;2;0;0;0;0;0;7;0;9373;0;0;0;0;8;0;9888;0;0;0;0;9;0;4450;0;0;0;0
20.01.21;21:45:00;1;2065;14365;0;2;0;1911;0;0;0;0;3;0;3674;0;0;0;0;4;0;0;0;0;0;0;5;0;0;0;0;0;0;0;0;6;0;262;2;0;0;0;0;0;7;0;9373;0;0;0;0;8;0;9888;0;0;0;0;9;0;4450;0;0;0;0
20.01.21;21:40:00;1;662;14105;0;2;0;1911;0;0;0;0;3;0;3674;0;0;0;0;4;0;0;0;0;0;0;5;0;0;0;0;0;0;0;0;6;0;262;2;0;0;0;0;0;7;0;9373;0;0;0;0;8;0;9888;0;0;0;0;9;0;4450;0;0;0;0
20.01.21;21:35:00;1;620;14049;0;2;0;1911;0;0;0;0;3;0;3674;0;0;0;0;4;0;0;0;0;0;0;5;0;0;0;0;0;0;0;0;6;0;262;2;0;0;0;0;0;7;0;9373;0;0;0;0;8;0;9888;0;0;0;0;9;0;4450;0;0;0;0
20.01.21;21:30:00;1;606;13962;0;2;0;1911;0;0;0;0;3;0;3674;0;0;0;0;4;0;0;0;0;0;0;5;0;0;0;0;0;0;0;0;6;0;262;2;0;0;0;0;0;7;0;9373;0;0;0;0;8;0;9888;0;0;0;0;9;0;4450;0;0;0;0
20.01.21;21:25:00;1;654;13910;0;2;0;1911;0;0;0;0;3;0;3674;0;0;0;0;4;0;0;0;0;0;0;5;0;0;0;0;0;0;0;0;6;0;262;2;0;0;0;0;0;7;0;9373;0;0;0;0;8;0;9888;0;0;0;0;9;0;4450;0;0;0;0
20.01.21;21:20:00;1;518;13858;0;2;0;1911;0;0;0;0;3;0;3674;0;0;0;0;4;0;0;0;0;0;0;5;0;0;0;0;0;0;0;0;6;0;262;2;0;0;0;0;0;7;0;9373;0;0;0;0;8;0;9888;0;0;0;0;9;0;4450;0;0;0;0
20.01.21;21:15:00;1;504;13814;0;2;0;1911;0;0;0;0;3;0;3674;0;0;0;0;4;0;0;0;0;0;0;5;0;0;0;0;0;0;0;0;6;0;262;2;0;0;0;0;0;7;0;9373;0;0;0;0;8;0;9888;0;0;0;0;9;0;4450;0;0;0;0
20.01.21;21:10:00;1;529;13738;0;2;0;1911;0;0;0;0;3;0;3674;0;0;0;0;4;0;0;0;0;0;0;5;0;0;0;0;0;0;0;0;6;0;262;2;0;0;0;0;0;7;0;9373;0;0;0;0;8;0;9888;0;0;0;0;9;0;4450;0;0;0;0
20.01.21;21:05:00;1;544;13694;0;2;0;1911;0;0;0;0;3;0;3674;0;0;0;0;4;0;0;0;0;0;0;5;0;0;0;0;0;0;0;0;6;0;262;2;0;0;0;0;0;7;0;9373;0;0;0;0;8;0;9888;0;0;0;0;9;0;4450;0;0;0;0
20.01.21;21:00:00;1;655;13649;0;2;0;1911;0;0;0;0;3;0;3674;0;0;0;0;4;0;0;0;0;0;0;5;0;0;0;0;0;0;0;0;6;0;262;2;0;0;0;0;0;7;0;9373;0;0;0;0;8;0;9888;0;0;0;0;9;0;4450;0;0;0;0
20.01.21;20:55:00;1;709;13594;0;2;0;1911;0;0;0;0;3;0;3674;0;0;0;0;4;0;0;0;0;0;0;5;0;0;0;0;0;0;0;0;6;0;262;2;0;0;0;0;0;7;0;9373;0;0;0;0;8;0;9888;0;0;0;0;9;0;4450;0;0;0;0
20.01.21;20:50:00;1;563;13508;0;2;0;1911;0;0;0;0;3;0;3674;0;0;0;0;4;0;0;0;0;0;0;5;0;0;0;0;0;0;0;0;6;0;262;2;0;0;0;0;0;7;0;9373;0;0;0;0;8;0;9888;0;0;0;0;9;0;4450;0;0;0;0
20.01.21;20:45:00;1;539;13461;0;2;0;1911;0;0;0;0;3;0;3674;0;0;0;0;4;0;0;0;0;0;0;5;0;0;0;0;0;0;0;0;6;0;262;2;0;0;0;0;0;7;0;9373;0;0;0;0;8;0;9888;0;0;0;0;9;0;4450;0;0;0;0
20.01.21;20:40:00;1;550;13417;0;2;0;1911;0;0;0;0;3;0;3674;0;0;0;0;4;0;0;0;0;0;0;5;0;0;0;0;0;0;0;0;6;0;262;2;0;0;0;0;0;7;0;9373;0;0;0;0;8;0;9888;0;0;0;0;9;0;4450;0;0;0;0
20.01.21;20:35:00;1;499;13371;0;2;0;1911;0;0;0;0;3;0;3674;0;0;0;0;4;0;0;0;0;0;0;5;0;0;0;0;0;0;0;0;6;0;262;2;0;0;0;0;0;7;0;9373;0;0;0;0;8;0;9888;0;0;0;0;9;0;4450;0;0;0;0
20.01.21;20:30:00;1;753;13310;0;2;0;1911;0;0;0;0;3;0;3674;0;0;0;0;4;0;0;0;0;0;0;5;0;0;0;0;0;0;0;0;6;0;262;2;0;0;0;0;0;7;0;9373;0;0;0;0;8;0;9888;0;0;0;0;9;0;4450;0;0;0;0
20.01.21;20:25:00;1;641;13246;0;2;0;1911;0;0;0;0;3;0;3674;0;0;0;0;4;0;0;0;0;0;0;5;0;0;0;0;0;0;0;0;6;0;262;2;0;0;0;0;0;7;0;9373;0;0;0;0;8;0;9888;0;0;0;0;9;0;4450;0;0;0;0
20.01.21;20:20:00;1;560;13195;0;2;0;1911;0;0;0;0;3;0;3674;0;0;0;0;4;0;0;0;0;0;0;5;0;0;0;0;0;0;0;0;6;0;262;2;0;0;0;0;0;7;0;9373;0;0;0;0;8;0;9888;0;0;0;0;9;0;4450;0;0;0;0
20.01.21;20:15:00;1;528;13148;0;2;0;1911;0;0;0;0;3;0;3674;0;0;0;0;4;0;0;0;0;0;0;5;0;0;0;0;0;0;0;0;6;0;262;2;0;0;0;0;0;7;0;9373;0;0;0;0;8;0;9888;0;0;0;0;9;0;4450;0;0;0;0
20.01.21;20:10:00;1;943;13097;0;2;0;1911;0;0;0;0;3;0;3674;0;0;0;0;4;0;0;0;0;0;0;5;0;0;0;0;0;0;0;0;6;0;262;2;0;0;0;0;0;7;0;9373;0;0;0;0;8;0;9888;0;0;0;0;9;0;4450;0;0;0;0
20.01.21;20:05:00;1;625;13013;0;2;0;1911;0;0;0;0;3;0;3674;0;0;0;0;4;0;0;0;0;0;0;5;0;0;0;0;0;0;0;0;6;0;262;2;0;0;0;0;0;7;0;9373;0;0;0;0;8;0;9888;0;0;0;0;9;0;4450;0;0;0;0
20.01.21;20:00:00;1;634;12961;0;2;0;1911;0;0;0;0;3;0;3674;0;0;0;0;4;0;0;0;0;0;0;5;0;0;0;0;0;0;0;0;6;0;262;2;0;0;0;0;0;7;0;9373;0;0;0;0;8;0;9888;0;0;0;0;9;0;4450;0;0;0;0
20.01.21;19:55:00;1;754;12908;0;2;0;1911;0;0;0;0;3;0;3674;0;0;0;0;4;0;0;0;0;0;0;5;0;0;0;0;0;0;0;0;6;0;262;2;0;0;0;0;0;7;0;9373;0;0;0;0;8;0;9888;0;0;0;0;9;0;4450;0;0;0;0
20.01.21;19:50:00;1;701;12857;0;2;0;1911;0;0;0;0;3;0;3674;0;0;0;0;4;0;0;0;0;0;0;5;0;0;0;0;0;0;0;0;6;0;262;2;0;0;0;0;0;7;0;9373;0;0;0;0;8;0;9888;0;0;0;0;9;0;4450;0;0;0;0
20.01.21;19:45:00;1;623;12780;0;2;0;1911;0;0;0;0;3;0;3674;0;0;0;0;4;0;0;0;0;0;0;5;0;0;0;0;0;0;0;0;6;0;262;2;0;0;0;0;0;7;0;9373;0;0;0;0;8;0;9888;0;0;0;0;9;0;4450;0;0;0;0
20.01.21;19:40:00;1;1303;12619;0;2;0;1911;0;0;0;0;3;0;3674;0;0;0;0;4;0;0;0;0;0;0;5;0;0;0;0;0;0;0;0;6;0;262;2;0;0;0;0;0;7;0;9373;0;0;0;0;8;0;9888;0;0;0;0;9;0;4450;0;0;0;0
20.01.21;19:35:00;1;638;12470;0;2;0;1911;0;0;0;0;3;0;3674;0;0;0;0;4;0;0;0;0;0;0;5;0;0;0;0;0;0;0;0;6;0;262;0;0;0;0;0;0;7;0;9373;0;0;0;0;8;0;9888;0;0;0;0;9;0;4450;0;0;0;0
20.01.21;19:30:00;1;1247;12414;0;2;0;1911;0;0;0;0;3;0;3674;0;0;0;0;4;0;0;0;0;0;0;5;0;0;0;0;0;0;0;0;6;0;262;2;0;0;0;0;0;7;0;9373;0;0;0;0;8;0;9888;0;0;0;0;9;0;4450;0;0;0;0
20.01.21;19:25:00;1;750;12317;0;2;0;1911;0;0;0;0;3;0;3674;0;0;0;0;4;0;0;0;0;0;0;5;0;0;0;0;0;0;0;0;6;0;262;2;0;0;0;0;0;7;0;9373;0;0;0;0;8;0;9888;0;0;0;0;9;0;4450;0;0;0;0
20.01.21;19:20:00;1;741;12256;0;2;0;1911;0;0;0;0;3;0;3674;0;0;0;0;4;0;0;0;0;0;0;5;0;0;0;0;0;0;0;0;6;0;262;2;0;0;0;0;0;7;0;9373;0;0;0;0;8;0;9888;0;0;0;0;9;0;4450;0;0;0;0
20.01.21;19:15:00;1;756;12195;0;2;0;1911;0;0;0;0;3;0;3674;0;0;0;0;4;0;0;0;0;0;0;5;0;0;0;0;0;0;0;0;6;0;262;2;0;0;0;0;0;7;0;9373;0;0;0;0;8;0;9888;0;0;0;0;9;0;4450;0;0;0;0
20.01.21;19:10:00;1;1414;12132;0;2;0;1911;0;0;0;0;3;0;3674;0;0;0;0;4;0;0;0;0;0;0;5;0;0;0;0;0;0;0;0;6;0;262;2;0;0;0;0;0;7;0;9373;0;0;0;0;8;0;9888;0;0;0;0;9;0;4450;0;0;0;0
20.01.21;19:05:00;1;785;12034;0;2;0;1911;0;0;0;0;3;0;3674;0;0;0;0;4;0;0;0;0;0;0;5;0;0;0;0;0;0;0;0;6;0;262;2;0;0;0;0;0;7;0;9373;0;0;0;0;8;0;9888;0;0;0;0;9;0;4450;0;0;0;0
20.01.21;19:00:00;1;807;11967;0;2;0;1911;0;0;0;0;3;0;3674;0;0;0;0;4;0;0;0;0;0;0;5;0;0;0;0;0;0;0;0;6;0;262;2;0;0;0;0;0;7;0;9373;0;0;0;0;8;0;9888;0;0;0;0;9;0;4450;0;0;0;0
20.01.21;18:55:00;1;760;11899;0;2;0;1911;0;0;0;0;3;0;3674;0;0;0;0;4;0;0;0;0;0;0;5;0;0;0;0;0;0;0;0;6;0;262;2;0;0;0;0;0;7;0;9373;0;0;0;0;8;0;9888;0;0;0;0;9;0;4450;0;0;0;0
20.01.21;18:50:00;1;772;11839;0;2;0;1911;0;0;0;0;3;0;3674;0;0;0;0;4;0;0;0;0;0;0;5;0;0;0;0;0;0;0;0;6;0;262;2;0;0;0;0;0;7;0;9373;0;0;0;0;8;0;9888;0;0;0;0;9;0;4450;0;0;0;0
20.01.21;18:45:00;1;1511;11775;0;2;0;1911;0;0;0;0;3;0;3674;0;0;0;0;4;0;0;0;0;0;0;5;0;0;0;0;0;0;0;0;6;0;262;2;0;0;0;0;0;7;0;9373;0;0;0;0;8;0;9888;0;0;0;0;9;0;4450;0;0;0;0
20.01.21;18:40:00;1;773;11677;0;2;0;1911;0;0;0;0;3;0;3674;0;0;0;0;4;0;0;0;0;0;0;5;0;0;0;0;0;0;0;0;6;0;262;2;0;0;0;0;0;7;0;9373;0;0;0;0;8;0;9888;0;0;0;0;9;0;4450;0;0;0;0
20.01.21;18:35:00;1;721;11612;0;2;0;1911;0;0;0;0;3;0;3674;0;0;0;0;4;0;0;0;0;0;0;5;0;0;0;0;0;0;0;0;6;0;262;2;0;0;0;0;0;7;0;9373;0;0;0;0;8;0;9888;0;0;0;0;9;0;4450;0;0;0;0
20.01.21;18:30:00;1;770;11552;0;2;0;1911;0;0;0;0;3;0;3674;0;0;0;0;4;0;0;0;0;0;0;5;0;0;0;0;0;0;0;0;6;0;262;2;0;0;0;0;0;7;0;9373;0;0;0;0;8;0;9888;0;0;0;0;9;0;4450;0;0;0;0
20.01.21;18:25:00;1;744;11487;0;2;0;1911;0;0;0;0;3;0;3674;0;0;0;0;4;0;0;0;0;0;0;5;0;0;0;0;0;0;0;0;6;0;262;2;0;0;0;0;0;7;0;9373;0;0;0;0;8;0;9888;0;0;0;0;9;0;4450;0;0;0;0
20.01.21;18:20:00;1;761;11391;0;2;0;1911;0;0;0;0;3;0;3674;0;0;0;0;4;0;0;0;0;0;0;5;0;0;0;0;0;0;0;0;6;0;262;2;0;0;0;0;0;7;0;9373;0;0;0;0;8;0;9888;0;0;0;0;9;0;4450;0;0;0;0
20.01.21;18:15:00;1;760;11327;0;2;0;1911;0;0;0;0;3;0;3674;0;0;0;0;4;0;0;0;0;0;0;5;0;0;0;0;0;0;0;0;6;0;262;2;0;0;0;0;0;7;0;9373;0;0;0;0;8;0;9888;0;0;0;0;9;0;4450;0;0;0;0
20.01.21;18:10:00;1;741;11264;0;2;0;1911;0;0;0;0;3;0;3674;0;0;0;0;4;0;0;0;0;0;0;5;0;0;0;0;0;0;0;0;6;0;262;2;0;0;0;0;0;7;0;9373;0;0;0;0;8;0;9888;0;0;0;0;9;0;4450;0;0;0;0
20.01.21;18:05:00;1;720;11201;0;2;0;1911;0;0;0;0;3;0;3674;0;0;0;0;4;0;0;0;0;0;0;5;0;0;0;0;0;0;0;0;6;0;262;2;0;0;0;0;0;7;0;9373;0;0;0;0;8;0;9888;0;0;0;0;9;0;4450;0;0;0;0
20.01.21;18:00:00;1;932;11128;0;2;0;1911;0;0;0;0;3;0;3674;0;0;0;0;4;0;0;0;0;0;0;5;0;0;0;0;0;0;0;0;6;0;262;2;0;0;0;0;0;7;0;9373;0;0;0;0;8;0;9888;0;0;0;0;9;0;4450;0;0;0;0
20.01.21;17:55:00;1;737;11043;0;2;0;1911;0;0;0;0;3;0;3674;0;0;0;0;4;0;0;0;0;0;0;5;0;0;0;0;0;0;0;0;6;0;262;2;0;0;0;0;0;7;0;9373;0;0;0;0;8;0;9888;0;0;0;0;9;0;4450;0;0;0;0
20.01.21;17:50:00;1;850;10979;0;2;0;1911;0;0;0;0;3;0;3674;0;0;0;0;4;0;0;0;0;0;0;5;0;0;0;0;0;0;0;0;6;0;262;2;0;0;0;0;0;7;0;9373;0;0;0;0;8;0;9888;0;0;0;0;9;0;4450;0;0;0;0
20.01.21;17:45:00;1;913;10908;0;2;0;1911;0;0;0;0;3;0;3674;0;0;0;0;4;0;0;0;0;0;0;5;0;0;0;0;0;0;0;0;6;0;262;2;0;0;0;0;0;7;0;9373;0;0;0;0;8;0;9888;0;0;0;0;9;0;4450;0;0;0;0
20.01.21;17:40:00;1;1234;10828;0;2;0;1911;0;0;0;0;3;0;3674;0;0;0;0;4;0;0;0;0;0;0;5;0;0;0;0;0;0;0;0;6;0;262;2;0;0;0;0;0;7;0;9373;0;0;0;0;8;0;9888;0;0;0;0;9;0;4450;0;0;0;0
20.01.21;17:35:00;1;666;10727;0;2;0;1911;0;0;0;0;3;0;3674;0;0;0;0;4;0;0;0;0;0;0;5;0;0;0;0;0;0;0;0;6;0;262;2;0;0;0;0;0;7;0;9373;0;0;0;0;8;0;9888;0;0;0;0;9;0;4450;0;0;0;0
20.01.21;17:30:00;1;935;10669;0;2;0;1911;0;0;0;0;3;0;3674;0;0;0;0;4;0;0;0;0;0;0;5;0;0;0;0;0;0;0;0;6;0;262;2;0;0;0;0;0;7;0;9373;0;0;0;0;8;0;9888;0;0;0;0;9;0;4450;0;0;0;0
20.01.21;17:25:00;1;681;10571;0;2;0;1911;0;0;0;0;3;0;3674;0;0;0;0;4;0;0;0;0;0;0;5;0;0;0;0;0;0;0;0;6;0;262;2;0;0;0;0;0;7;0;9373;0;0;0;0;8;0;9888;0;0;0;0;9;0;4450;0;0;0;0
20.01.21;17:20:00;1;2247;10514;0;2;0;1911;0;0;0;0;3;0;3674;0;0;0;0;4;0;0;0;0;0;0;5;0;0;0;0;0;0;0;0;6;0;262;2;0;0;0;0;0;7;0;9373;0;0;0;0;8;0;9888;0;0;0;0;9;0;4450;0;0;0;0
20.01.21;17:15:00;1;3512;10368;0;2;0;1911;0;0;0;0;3;0;3674;0;0;0;0;4;0;0;0;0;0;0;5;0;0;0;0;0;0;0;0;6;0;262;2;0;0;0;0;0;7;0;9373;0;0;0;0;8;0;9888;0;0;0;0;9;0;4450;0;0;0;0
20.01.21;17:10:00;1;585;10182;0;2;0;1911;0;0;0;0;3;0;3674;0;0;133;6;4;0;0;0;0;0;0;5;0;0;0;0;0;0;0;0;6;0;262;2;0;0;0;0;0;7;0;9373;0;0;0;0;8;0;9888;0;0;0;0;9;0;4450;0;0;0;0
20.01.21;17:05:00;1;570;10132;0;2;0;1911;0;0;0;0;3;0;3674;6;0;293;12;4;0;0;0;0;0;0;5;0;0;0;0;0;0;0;0;6;0;262;2;0;0;0;0;0;7;0;9373;0;0;0;0;8;0;9888;0;0;0;0;9;0;4450;0;0;0;0
20.01.21;17:00:00;1;571;10087;0;2;0;1911;6;0;321;9;3;0;3674;6;3;392;13;4;0;0;0;0;0;0;5;0;0;0;0;0;0;0;0;6;0;262;2;0;0;0;0;0;7;0;9373;0;0;182;10;8;0;9888;0;0;180;9;9;0;4450;0;0;179;6
20.01.21;16:55:00;1;1269;10040;0;2;0;1911;6;0;344;9;3;0;3674;6;0;451;13;4;0;0;0;0;0;0;5;0;0;0;0;0;0;0;0;6;0;262;1;0;0;0;0;0;7;0;9373;6;0;306;15;8;0;9888;6;0;305;14;9;0;4450;6;0;302;10
20.01.21;16:50:00;1;514;9964;0;2;0;1911;6;0;384;9;3;1;3674;6;2;489;13;4;0;0;0;0;0;0;5;0;0;0;0;0;0;0;0;6;0;262;1;0;0;0;0;6;7;0;9373;6;0;425;15;8;0;9888;6;0;412;15;9;0;4450;6;0;416;10
20.01.21;16:45:00;1;514;9921;0;2;0;1911;6;0;400;9;3;0;3674;6;0;534;13;4;0;0;0;0;0;0;5;0;0;0;0;0;0;0;0;6;0;262;1;0;0;0;0;15;7;0;9373;3;10;356;16;8;0;9888;6;0;422;15;9;0;4450;6;0;485;10
20.01.21;16:40:00;1;552;9878;0;2;2;1911;6;5;411;9;3;2;3674;6;6;540;14;4;0;0;0;0;0;0;5;0;0;0;0;0;0;0;0;6;0;262;23;4;5;364;212;18;7;9;9373;6;18;466;16;8;5;9888;3;15;471;16;9;2;4450;6;2;522;11
20.01.21;16:35:00;1;559;9832;0;2;0;1911;6;0;428;10;3;16;3673;3;29;498;14;4;0;0;0;0;0;0;5;0;0;0;0;0;0;0;0;6;0;262;23;5;6;444;182;18;7;44;9372;4;76;406;16;8;42;9888;4;78;380;16;9;6;4450;4;16;486;11
20.01.21;16:30:00;1;583;9752;0;2;35;1911;6;53;384;10;3;63;3673;4;95;429;14;4;0;0;0;0;0;0;5;0;0;0;0;0;0;0;0;6;0;262;23;3;8;267;314;18;7;97;9369;4;136;430;17;8;92;9884;4;129;445;16;9;15;4450;6;21;520;11
20.01.21;16:25:00;1;563;9702;0;2;55;1908;4;86;383;10;3;81;3668;4;113;456;15;4;0;0;0;0;0;0;5;0;0;0;0;0;0;0;0;6;0;262;23;3;7;178;319;18;7;151;9361;4;174;449;17;8;138;9876;4;167;413;17;9;61;4449;4;87;438;12
20.01.21;16:20:00;1;515;9657;0;2;96;1903;4;123;389;11;3;129;3661;4;165;470;15;4;0;0;0;0;0;0;5;0;0;0;0;0;0;0;0;6;0;262;23;4;10;209;389;18;7;237;9349;4;276;452;17;8;231;9865;4;270;447;17;9;106;4443;4;134;459;12
20.01.21;16:15:00;1;516;9614;0;2;109;1895;4;142;387;11;3;148;3650;4;186;480;15;4;0;0;0;0;0;0;5;0;0;0;0;0;0;0;0;6;0;262;23;8;16;179;328;19;7;288;9329;4;328;469;18;8;269;9846;4;314;449;17;9;126;4434;4;152;470;12
20.01.21;16:10:00;1;1186;9571;0;2;137;1886;4;168;389;11;3;182;3637;4;219;453;15;4;0;0;0;0;0;0;5;0;0;0;0;0;0;0;0;6;0;262;23;3;7;179;331;19;7;353;9304;4;397;458;18;8;345;9822;4;389;465;18;9;159;4424;4;190;465;12
20.01.21;16:05:00;1;593;9491;0;2;133;1874;4;170;415;11;3;193;3622;4;236;464;15;4;0;0;0;0;0;0;5;0;0;0;0;0;0;0;0;6;0;262;23;3;7;179;332;19;7;379;9275;4;424;461;18;8;372;9794;4;417;453;18;9;173;4411;4;202;470;13
20.01.21;16:00:00;1;648;9440;0;2;184;1863;4;217;380;11;3;242;3606;4;284;479;16;4;0;0;2;0;78;2;5;0;0;0;0;0;0;0;0;6;0;262;23;3;6;179;337;20;7;469;9243;4;512;454;18;8;460;9763;4;499;467;18;9;208;4396;4;238;474;13
20.01.21;15:55:00;1;573;9389;0;2;206;1848;4;240;375;12;3;273;3586;4;316;472;16;4;0;0;1;0;82;2;5;0;0;0;0;0;0;0;0;6;0;262;23;3;6;179;340;20;7;529;9204;4;581;493;19;8;498;9724;4;548;453;18;9;226;4379;4;263;478;13
20.01.21;15:50:00;1;628;9341;0;2;253;1831;4;288;380;12;3;330;3563;4;376;477;16;4;0;0;1;0;89;2;5;0;0;0;0;0;0;0;0;6;25;262;1;5;23;360;371;21;7;650;9160;4;707;481;19;8;632;9683;4;685;478;19;9;263;4360;4;300;495;14
20.01.21;15:45:00;1;1359;9283;0;2;304;1810;4;340;387;12;3;351;3536;4;397;432;16;4;0;0;1;0;95;2;5;0;0;0;0;0;0;0;0;6;57;260;4;11;57;257;281;22;7;744;9107;4;802;489;19;8;732;9631;4;779;469;19;9;288;4338;4;328;506;14
20.01.21;15:40:00;1;650;9193;0;2;464;1784;4;500;361;12;3;507;3506;4;553;404;17;4;0;0;1;0;110;2;5;0;0;0;0;0;0;0;0;6;72;255;4;7;49;257;280;22;7;1449;9045;4;1535;497;20;8;1334;9568;4;1406;477;20;9;354;4314;4;397;503;14
20.01.21;15:35:00;1;685;9139;0;2;491;1747;4;535;366;12;3;505;3465;4;549;353;17;4;0;0;1;0;111;2;5;0;0;0;0;0;0;0;0;6;78;249;4;14;88;256;281;21;7;1542;8929;4;1620;493;20;8;1448;9461;4;1523;477;20;9;357;4285;4;398;450;14
20.01.21;15:30:00;1;358;9084;0;2;688;1706;4;734;358;13;3;757;3424;4;811;395;17;4;0;0;1;0;127;2;5;0;0;0;0;0;0;0;0;6;105;242;4;14;106;257;280;21;7;1508;8799;4;1599;535;20;8;1730;9340;4;1823;510;20;9;513;4255;4;556;426;15
20.01.21;15:25:00;1;340;9054;0;2;680;1648;4;723;359;13;3;781;3361;4;836;386;17;4;0;0;1;0;128;2;5;0;0;0;0;0;0;0;0;6;105;233;4;12;86;257;280;21;7;1580;8673;4;1670;532;21;8;1666;9196;4;1757;534;21;9;533;4212;4;577;406;15
20.01.21;15:20:00;1;546;9003;0;2;888;1588;4;943;363;13;3;942;3294;4;1019;387;18;4;0;0;1;0;141;2;5;0;0;0;0;0;0;0;0;6;123;225;4;14;112;257;280;21;7;1746;8542;4;1843;487;21;8;1814;9038;4;1907;526;21;9;764;4160;4;814;405;16
20.01.21;15:15:00;1;341;8962;0;2;1015;1515;4;1072;370;13;3;1038;3216;4;1102;424;18;4;0;0;1;0;148;2;5;0;0;0;0;0;0;0;0;6;133;214;4;15;123;257;280;21;7;2014;8397;4;2122;492;21;8;561;8889;4;601;557;21;9;579;4097;4;625;422;16
20.01.21;15:10:00;1;341;8934;0;2;1109;1429;4;1166;367;13;3;1379;3128;4;1460;444;18;4;0;0;1;0;159;2;5;0;0;0;0;0;0;0;0;6;146;203;4;17;135;257;280;21;7;2773;8229;4;2897;515;21;8;2064;8876;4;2165;451;21;9;1036;4050;4;1099;455;16
20.01.21;15:05:00;1;342;8905;0;2;1102;1337;4;1156;350;13;3;1440;3014;4;1528;464;18;4;0;0;1;0;161;2;5;0;0;0;0;0;0;0;0;6;149;190;4;18;152;257;281;21;7;2597;7999;4;2726;503;21;8;1959;8705;4;2062;468;21;9;1141;3961;4;1206;448;17
20.01.21;15:00:00;1;607;8874;0;2;1046;1245;4;1104;363;12;3;1527;2894;4;1613;453;18;4;0;0;1;0;164;2;5;0;0;0;0;0;0;0;0;6;143;178;4;17;138;257;280;21;7;2963;7780;4;3109;466;21;8;3051;8540;4;3194;472;21;9;1138;3866;4;1205;427;17
20.01.21;14:55:00;1;363;8810;0;2;1107;1157;4;1166;354;12;3;1627;2766;4;1720;448;18;4;0;0;1;0;168;2;5;0;0;0;0;0;0;0;0;6;145;166;4;17;127;257;280;21;7;3817;7538;4;3995;469;21;8;3133;8284;4;3271;469;21;9;1471;3768;4;1550;447;17
20.01.21;14:50:00;1;434;8777;0;2;1209;1063;4;1269;353;12;3;1730;2629;4;1827;459;17;4;0;0;1;0;175;2;5;0;0;0;0;0;0;0;0;6;152;153;4;16;122;257;280;20;7;4322;7209;4;4541;482;20;8;4160;7977;4;4362;492;21;9;2020;3626;4;2127;460;17
20.01.21;14:45:00;1;451;8741;0;2;1198;962;4;1256;354;11;3;1660;2484;4;1756;460;17;4;0;0;1;0;174;2;5;0;0;0;0;0;0;0;0;6;143;140;4;12;90;257;280;20;7;4131;6848;4;4331;489;20;8;4103;7630;4;4291;485;20;9;1926;3458;4;2029;462;17
20.01.21;14:40:00;1;375;8706;0;2;953;860;4;1003;353;11;3;1421;2346;4;1503;442;17;4;0;0;1;0;167;2;5;0;0;0;0;0;0;0;0;6;118;129;4;17;106;257;280;20;7;3608;6497;4;3776;483;20;8;3571;7282;4;3751;486;20;9;1679;3295;4;1769;470;16
20.01.21;14:35:00;1;407;8674;0;2;678;782;4;718;355;11;3;1038;2228;4;1107;448;17;4;0;0;1;0;152;2;5;0;0;0;0;0;0;0;0;6;91;120;4;14;76;257;280;20;7;2720;6197;4;2861;477;20;8;2775;6987;4;2910;481;20;9;1341;3158;4;1415;474;16
20.01.21;14:30:00;1;421;8603;0;2;771;729;4;816;359;10;3;1209;2146;4;1284;434;17;4;0;0;1;0;162;2;5;0;0;0;0;0;0;0;0;6;99;112;4;14;80;257;281;20;7;2992;5983;4;3133;473;19;8;2986;6767;4;3125;480;20;9;1416;3049;4;1501;478;16
20.01.21;14:25:00;1;412;8567;0;2;847;664;4;899;367;10;3;1321;2045;4;1404;448;17;4;0;0;1;0;168;2;5;0;0;0;0;0;0;0;0;6;109;104;4;19;115;257;281;20;7;3245;5734;4;3412;469;19;8;3202;6518;4;3352;493;20;9;1533;2932;4;1621;478;16
20.01.21;14:20:00;1;353;8533;0;2;688;594;4;730;365;10;3;1189;1935;4;1261;430;16;4;0;0;1;0;164;2;5;0;0;0;0;0;0;0;0;6;95;96;4;17;95;257;280;19;7;2959;5466;4;3102;474;19;8;2963;6253;4;3101;482;20;9;1427;2805;4;1510;473;16
20.01.21;14:15:00;1;356;8503;0;2;565;536;4;602;366;10;3;1064;1836;4;1132;425;16;4;0;0;1;0;158;2;5;0;0;0;0;0;0;0;0;6;87;88;4;17;89;257;280;19;7;2872;5217;4;3011;473;19;8;2906;6005;4;3046;477;20;9;1409;2685;4;1494;474;16
20.01.21;14:10:00;1;773;8470;0;2;609;492;4;647;353;10;3;1339;1752;4;1415;429;16;4;0;0;1;0;173;2;5;0;0;0;0;0;0;0;0;6;100;81;4;14;74;257;280;19;7;3379;4985;4;3537;473;18;8;3344;5769;4;3509;473;19;9;1604;2571;4;1693;465;16
20.01.21;14:05:00;1;356;8409;0;2;580;441;4;617;358;10;3;1366;1640;4;1445;425;16;4;0;0;1;0;176;2;5;0;0;0;0;0;0;0;0;6;105;72;4;24;119;257;281;19;7;3663;4706;4;3827;477;18;8;3644;5494;4;3817;493;19;9;1800;2438;4;1896;470;16
20.01.21;14:00:00;1;404;8374;0;2;430;393;4;464;355;9;3;1300;1526;4;1375;423;16;4;0;0;1;0;175;2;5;0;0;0;0;0;0;0;0;6;97;64;4;17;89;257;281;18;7;3537;4399;4;3704;469;17;8;3509;5187;4;3680;478;19;9;1711;2287;4;1804;463;15
20.01.21;13:55:00;1;448;8320;0;2;410;356;4;442;354;9;3;1324;1417;4;1399;420;15;4;0;0;1;0;176;1;5;0;0;0;0;0;0;0;0;6;96;55;4;17;86;257;280;18;7;3626;4103;4;3799;473;17;8;3606;4895;4;3786;469;18;9;1759;2145;4;1852;462;15
20.01.21;13:50:00;1;1975;8243;0;2;364;323;4;394;354;9;3;1348;1306;4;1428;428;15;4;0;0;1;0;179;1;5;0;0;0;0;0;0;0;0;6;10;51;1;6;12;497;517;17;7;3537;3799;4;3710;470;16;8;3632;4592;4;3802;474;18;9;1759;1998;4;1852;464;14
20.01.21;13:45:00;1;1527;8083;0;2;336;292;4;364;359;9;3;1339;1193;4;1418;432;15;4;0;0;1;0;180;1;5;0;0;0;0;0;0;0;0;6;11;50;4;6;10;511;376;17;7;3590;3502;4;3756;469;16;8;3694;4288;4;3877;485;18;9;1786;1851;4;1886;462;14
20.01.21;13:40:00;1;2774;7937;0;2;216;265;4;242;351;9;3;925;1082;4;986;424;14;4;0;0;1;0;158;1;5;0;0;0;0;0;0;0;0;6;9;49;4;2;7;494;462;17;7;2475;3199;4;2588;469;16;8;2671;3976;4;2801;477;17;9;1312;1699;4;1390;467;13
20.01.21;13:35:00;1;3860;7719;0;2;204;246;4;228;354;9;3;908;1004;4;968;412;14;4;0;0;1;0;158;1;5;0;0;0;0;0;0;0;0;6;0;49;1;2;8;612;625;18;7;2270;2983;4;2379;465;16;8;2472;3744;4;2583;469;17;9;1194;1586;4;1267;470;13
20.01.21;13:30:00;1;336;7523;0;2;238;229;4;265;358;9;3;1146;929;4;1214;423;14;4;0;0;1;0;173;1;5;0;0;0;0;0;0;0;0;6;3;48;8;1;4;598;569;17;7;2766;2794;4;2890;461;15;8;3147;3537;4;3293;466;17;9;1514;1485;4;1597;464;13
20.01.21;13:25:00;1;1050;7495;0;2;259;210;4;287;350;9;3;1237;834;4;1312;432;14;4;0;0;1;0;181;1;5;0;0;0;0;0;0;0;0;6;21;47;4;8;18;481;480;18;7;3051;2563;4;3202;445;15;8;3653;3275;4;3812;461;16;9;1753;1359;4;1852;478;13